Weather History for Jamestown, ND

Change the Weather History Date:

Thursday, March 6, 2014

  Actual Average Record
Temperature  
Mean Temperature -1 °C -5 °C  
Max Temperature 4 °C 0 °C 15 °C (2000)
Min Temperature -7 °C -10 °C -27 °C (1932)
Degree Days  
Heating Degree Days 35 42  
Month to date heating degree days 355 260  
Since 1 July heating degree days 7623 7019  
Cooling Degree Days 0 0  
Month to date cooling degree days 0 0  
Year to date cooling degree days 0 0  
Moisture  
Dew Point -4 °C    
Average Humidity 88    
Maximum Humidity 100    
Minimum Humidity 75    
Precipitation  
Precipitation 0.00 mm 0.76 mm 0.81 mm (1983)
Month to date precipitation T 0.14  
Year to date precipitation 0.39 0.99  
Sea Level Pressure  
Sea Level Pressure 1008 hPa    
Wind  
Wind Speed 23 km/h (WSW)    
Max Wind Speed 45 km/h    
Max Gust Speed 52 km/h    
Visibility 10 kilometers    
Events      
T = Trace of Precipitation, MM = Missing Value Source: NWS Daily Summary

Daily Weather History Graph

Daily Weather History Graph

Search for Another Location

Airport:

Trip Planner

Search our weather history database for the weather conditions in past years. The results will help you decide how hot, cold, wet, or windy it might be!

Date:

Astronomy

Mar. 06, 2014 Rise Set
Actual Time 7:04 AM CST 6:27 PM CST
Civil Twilight 6:34 AM CST 6:57 PM CST
Nautical Twilight 5:59 AM CST 7:33 PM CST
Astronomical Twilight 5:24 AM CST 8:08 PM CST
Moon 9:52 AM CST (3/6) No Moon Set
Length of Visible Light 12h 23m
Length of Day
11h 22m
Waxing Crescent, 32% of the Moon is Illuminated
Mar 6
Waxing Crescent
Mar 8
First Quarter
Mar 16
Full
Mar 23
Last Quarter
Mar 30
New

Hourly Weather History & Observations

Time (CST) Temp. Windchill Dew Point Humidity Pressure Visibility Wind Dir Wind Speed Gust Speed Precip Events Conditions
12:56 AM -6.7 °C -16.6 °C -8.3 °C 89% 1014.6 hPa 11.3 km South 42.6 km/h / 11.8 m/s 51.9 km/h / 14.4 m/s N/A   Overcast
1:56 AM -6.1 °C -15.6 °C -8.3 °C 85% 1012.9 hPa 11.3 km South 40.7 km/h / 11.3 m/s - N/A   Scattered Clouds
2:56 AM -6.1 °C -15.2 °C -7.8 °C 88% 1012.5 hPa 11.3 km South 37.0 km/h / 10.3 m/s - N/A   Overcast
3:56 AM -6.1 °C -15.4 °C -7.8 °C 88% 1010.9 hPa 9.7 km South 38.9 km/h / 10.8 m/s - N/A   Overcast
4:56 AM -5.6 °C -14.6 °C -7.2 °C 89% 1009.6 hPa 8.0 km South 37.0 km/h / 10.3 m/s 50.0 km/h / 13.9 m/s N/A   Overcast
5:56 AM -5.6 °C -14.1 °C -7.2 °C 89% 1009.2 hPa 9.7 km South 33.3 km/h / 9.3 m/s - N/A   Mostly Cloudy
6:56 AM -5.6 °C -13.9 °C -7.2 °C 89% 1008.7 hPa 9.7 km South 31.5 km/h / 8.7 m/s - N/A   Overcast
7:56 AM -5.6 °C -13.9 °C -7.8 °C 85% 1008.2 hPa 8.0 km South 31.5 km/h / 8.7 m/s - N/A   Clear
8:56 AM -4.4 °C -11.7 °C -6.7 °C 84% 1007.9 hPa 8.0 km South 25.9 km/h / 7.2 m/s - N/A   Clear
9:56 AM -2.2 °C -8.3 °C -5.6 °C 78% 1007.6 hPa 11.3 km South 22.2 km/h / 6.2 m/s - N/A   Clear
10:56 AM 0.6 °C -4.2 °C -3.3 °C 75% 1007.4 hPa 14.5 km SSW 18.5 km/h / 5.1 m/s - N/A   Clear
11:56 AM 2.2 °C -2.0 °C -1.7 °C 76% 1006.7 hPa 16.1 km SSW 16.7 km/h / 4.6 m/s - N/A   Clear
12:56 PM 3.3 °C -0.9 °C -1.1 °C 73% 1006.1 hPa 16.1 km SSW 18.5 km/h / 5.1 m/s - N/A   Clear
1:56 PM 3.3 °C 0.0 °C -1.1 °C 73% 1005.5 hPa 16.1 km WSW 13.0 km/h / 3.6 m/s - N/A   Overcast
2:56 PM 3.3 °C 0.8 °C -0.6 °C 76% 1005.1 hPa 16.1 km West 9.3 km/h / 2.6 m/s - N/A   Mostly Cloudy
3:56 PM 2.2 °C -0.5 °C -0.6 °C 82% 1005.5 hPa 16.1 km NW 9.3 km/h / 2.6 m/s - N/A   Overcast
4:56 PM 2.2 °C 0.0 °C -0.6 °C 82% 1004.8 hPa 16.1 km North 7.4 km/h / 2.1 m/s - N/A   Overcast
5:56 PM 1.1 °C - 0.0 °C 92% 1004.8 hPa 14.5 km Calm Calm - N/A   Overcast
6:56 PM 1.1 °C - 0.0 °C 92% 1005.1 hPa 12.9 km Calm Calm - N/A   Overcast
7:56 PM 0.6 °C -4.2 °C -0.6 °C 92% 1006.3 hPa 11.3 km NNW 18.5 km/h / 5.1 m/s - N/A   Mostly Cloudy
8:56 PM 0.0 °C -4.7 °C -1.1 °C 92% 1006.8 hPa 11.3 km NNW 16.7 km/h / 4.6 m/s - N/A   Overcast
9:56 PM -0.6 °C -6.3 °C -1.7 °C 92% 1007.3 hPa 9.7 km NW 22.2 km/h / 6.2 m/s - N/A   Overcast
10:06 PM -0.6 °C -6.5 °C -1.7 °C 92% 1005.6 hPa 9.7 km NW 24.1 km/h / 6.7 m/s - N/A   Overcast
10:56 PM -1.7 °C -8.8 °C -2.2 °C 96% 1008.2 hPa 4.8 km NW 31.5 km/h / 8.7 m/s - N/A   Overcast
11:03 PM -2.2 °C -10.0 °C -2.8 °C 96% 1006.7 hPa 3.2 km NW 37.0 km/h / 10.3 m/s - N/A   Overcast
11:05 PM -2.2 °C -9.9 °C -2.8 °C 96% 1006.7 hPa 2.8 km NW 35.2 km/h / 9.8 m/s - N/A   Overcast
11:15 PM -2.8 °C -10.7 °C -3.3 °C 96% 1006.7 hPa 4.0 km NNW 35.2 km/h / 9.8 m/s - N/A   Overcast
11:24 PM -2.8 °C -10.5 °C -3.3 °C 96% 1007.0 hPa 4.8 km NW 33.3 km/h / 9.3 m/s - N/A   Overcast
11:33 PM -3.3 °C -11.7 °C -3.9 °C 96% 1007.0 hPa 4.8 km NNW 38.9 km/h / 10.8 m/s 44.4 km/h / 12.3 m/s N/A   Overcast
11:56 PM -3.9 °C -12.3 °C -5.6 °C 88% 1009.4 hPa 4.8 km NNW 37.0 km/h / 10.3 m/s - N/A   Overcast